Showing default

IRIDIUM 29, 24944

Orbit data source: Space-Track

IRIDIUM 29, 24944 is a payload satellite owned by Iridium (US) in LEO that was launched on Sun, 14 Sep 1997 UTC via a PROTON-K/17S40 launch vehicle from the Tyuratam Missile And Space Complex (TTMTR). Payload-class satellites include a variety of spacecraft equipped with specific instruments for various scientific and technological missions. These include communications satellites like Starlink; space stations such as the ISS; scientific satellites like the Hubble; Earth observation satellites from companies like Planet Labs, Umbra, and HawkEye 360; GPS; miniature CubeSats for education and research; and military/defense satellites.

Loading next visibility...
Identifier
24944, 1997-051A
Orbit
LEO
Country
Flag of USUS
Related business
Manufacturer
MOTO/LMMS
Mission
Non-operational Commercial Communications
Bus & Motor
LM700, Unknown motor
Mass
662 kg wet, 556 kg dry
Launch date (UTC)
1997-09-14 (28 years ago)
Launch vehicle
PROTON-K/17S40
Launch site
Tyuratam Missile And Space Complex (TTMTR)
Object type
Payload
Rocket body
Debris
Shape & HBR
Box + 2 Pan, 4.2 m
Radar Cross Section
5.666 m², Large (>1 m²)

Expand to show TLE details & history
Last TLE update: 1 day ago

TLE from 1 day ago
0 IRIDIUM 29
1 24944U 97051A   25242.11580048  .00000457  00000-0  14890-3 0  9998
2 24944  86.3938 112.8943 0002266  81.9885 278.1569 14.36518621463889
Epoch: 2025-08-30T02:46Z
TLE epoch observation values (Epoch: 2025-08-30T02:46:45.161Z)
Latitude
-0.00004°
Longitude
92.6514°
Altitude
772.849 km
Speed
7.468 km/s
True Right ascension
07h 31m 34s
True Declination
0° 00' 00"
Sunlit
Object was in daylight at epoch
Visualization orbit readout
Latitude
Unknown
Longitude
Unknown
Altitude
Unknown
Speed
Unknown
Apparent Right ascension
Unknown
Apparent Declination
Unknown
Sunlit
N/A
Visualization observer readout
Local Sidereal Time
18:01:55
Azimuth
Unknown
Elevation
Unknown
Doppler factor
Unknown
Orbital elements
Apogee altitude
768.605 km
Perigee altitude
765.366 km
Semi-major axis
7,145.122 km
Eccentricity
0.00023
Inclination
86.3938°
RAAN
112.8943°
Arg. of periapsis
81.9885°
True anomaly
278.1312°
Mean anomaly
278.1569°
Eccentric anomaly
278.14405°
Mean motion
3.59359 °/min
Orbital period
100.18 mins
BSTAR
0.0001489
Loading maneuver chart data...
Computing Atmospheric mass density...

Documentation

Showing up to 5 results
|